Year,Month,Day,Hour,Minute,Value (Times are PST for temperature in C)
2003,06,03,00,00,12.30
2003,06,03,00,01,12.30
2003,06,03,00,02,12.30
2003,06,03,00,03,12.30
2003,06,03,00,04,12.20
2003,06,03,00,05,12.20
2003,06,03,00,06,12.10
2003,06,03,00,07,12.10
2003,06,03,00,08,12.20
2003,06,03,00,09,12.20
2003,06,03,00,10,12.20
2003,06,03,00,11,12.20
2003,06,03,00,12,12.10
2003,06,03,00,13,12.10
2003,06,03,00,14,12.10
2003,06,03,00,15,12.10
2003,06,03,00,16,12.10
2003,06,03,00,17,12.10
2003,06,03,00,18,12.10
2003,06,03,00,19,12.00
2003,06,03,00,20,12.10
2003,06,03,00,21,12.10
2003,06,03,00,22,12.10
2003,06,03,00,23,12.10
2003,06,03,00,24,12.10
2003,06,03,00,25,12.10
2003,06,03,00,26,12.10
2003,06,03,00,27,12.20
2003,06,03,00,28,12.20
2003,06,03,00,29,12.20
2003,06,03,00,30,12.20
2003,06,03,00,31,12.20
2003,06,03,00,32,12.20
2003,06,03,00,33,12.20
2003,06,03,00,34,12.20
2003,06,03,00,35,12.20
2003,06,03,00,36,12.20
2003,06,03,00,37,12.10
2003,06,03,00,38,12.10
2003,06,03,00,39,12.00
2003,06,03,00,40,12.00
2003,06,03,00,41,11.90
2003,06,03,00,42,11.90
2003,06,03,00,43,11.80
2003,06,03,00,44,11.80
2003,06,03,00,45,11.80
2003,06,03,00,46,11.80
2003,06,03,00,47,11.80
2003,06,03,00,48,11.70
2003,06,03,00,49,11.70
2003,06,03,00,50,11.60
2003,06,03,00,51,11.60
2003,06,03,00,52,11.60
2003,06,03,00,53,11.60
2003,06,03,00,54,11.50
2003,06,03,00,55,11.40
2003,06,03,00,56,11.40
2003,06,03,00,57,11.40
2003,06,03,00,58,11.40
2003,06,03,00,59,11.40
2003,06,03,01,00,11.30
2003,06,03,01,01,11.30
2003,06,03,01,02,11.20
2003,06,03,01,03,11.20
2003,06,03,01,04,11.10
2003,06,03,01,05,11.10
2003,06,03,01,06,11.00
2003,06,03,01,07,10.90
2003,06,03,01,08,10.90
2003,06,03,01,09,10.90
2003,06,03,01,10,10.90
2003,06,03,01,11,10.90
2003,06,03,01,12,11.00
2003,06,03,01,13,11.10
2003,06,03,01,14,11.10
2003,06,03,01,15,11.20
2003,06,03,01,16,11.30
2003,06,03,01,17,11.30
2003,06,03,01,18,11.30
2003,06,03,01,19,11.30
2003,06,03,01,20,11.30
2003,06,03,01,21,11.30
2003,06,03,01,22,11.30
2003,06,03,01,23,11.30
2003,06,03,01,24,11.20
2003,06,03,01,25,11.20
2003,06,03,01,26,11.20
2003,06,03,01,27,11.20
2003,06,03,01,28,11.20
2003,06,03,01,29,11.10
2003,06,03,01,30,11.10
2003,06,03,01,31,11.10
2003,06,03,01,32,11.10
2003,06,03,01,33,11.10
2003,06,03,01,34,11.10
2003,06,03,01,35,11.10
2003,06,03,01,36,11.10
2003,06,03,01,37,11.10
2003,06,03,01,38,11.10
2003,06,03,01,39,11.00
2003,06,03,01,40,10.90
2003,06,03,01,41,10.90
2003,06,03,01,42,10.90
2003,06,03,01,43,10.90
2003,06,03,01,44,10.90
2003,06,03,01,45,10.90
2003,06,03,01,46,10.90
2003,06,03,01,47,10.90
2003,06,03,01,48,10.90
2003,06,03,01,49,10.90
2003,06,03,01,50,10.90
2003,06,03,01,51,10.90
2003,06,03,01,52,10.80
2003,06,03,01,53,10.80
2003,06,03,01,54,10.80
2003,06,03,01,55,10.70
2003,06,03,01,56,10.70
2003,06,03,01,57,10.80
2003,06,03,01,58,10.70
2003,06,03,01,59,10.70
2003,06,03,02,00,10.70
2003,06,03,02,01,10.70
2003,06,03,02,02,10.70
2003,06,03,02,03,10.70
2003,06,03,02,04,10.70
2003,06,03,02,05,10.60
2003,06,03,02,06,10.60
2003,06,03,02,07,10.60
2003,06,03,02,08,10.60
2003,06,03,02,09,10.60
2003,06,03,02,10,10.60
2003,06,03,02,11,10.60
2003,06,03,02,12,10.60
2003,06,03,02,13,10.70
2003,06,03,02,14,10.80
2003,06,03,02,15,10.80
2003,06,03,02,16,10.80
2003,06,03,02,17,10.80
2003,06,03,02,18,10.80
2003,06,03,02,19,10.80
2003,06,03,02,20,10.70
2003,06,03,02,21,10.70
2003,06,03,02,22,10.60
2003,06,03,02,23,10.60
2003,06,03,02,24,10.60
2003,06,03,02,25,10.60
2003,06,03,02,26,10.50
2003,06,03,02,27,10.40
2003,06,03,02,28,10.40
2003,06,03,02,29,10.40
2003,06,03,02,30,10.30
2003,06,03,02,31,10.20
2003,06,03,02,32,10.20
2003,06,03,02,33,10.10
2003,06,03,02,34,9.90
2003,06,03,02,35,9.90
2003,06,03,02,36,9.90
2003,06,03,02,37,9.90
2003,06,03,02,38,9.90
2003,06,03,02,39,9.80
2003,06,03,02,40,9.80
2003,06,03,02,41,9.80
2003,06,03,02,42,9.80
2003,06,03,02,43,9.80
2003,06,03,02,44,9.80
2003,06,03,02,45,9.80
2003,06,03,02,46,9.90
2003,06,03,02,47,10.00
2003,06,03,02,48,10.10
2003,06,03,02,49,10.10
2003,06,03,02,50,10.10
2003,06,03,02,51,10.10
2003,06,03,02,52,10.20
2003,06,03,02,53,10.30
2003,06,03,02,54,10.40
2003,06,03,02,55,10.40
2003,06,03,02,56,10.40
2003,06,03,02,57,10.40
2003,06,03,02,58,10.40
2003,06,03,02,59,10.60
2003,06,03,03,00,10.60
2003,06,03,03,01,10.60
2003,06,03,03,02,10.60
2003,06,03,03,03,10.60
2003,06,03,03,04,10.80
2003,06,03,03,05,10.80
2003,06,03,03,06,10.90
2003,06,03,03,07,10.90
2003,06,03,03,08,10.90
2003,06,03,03,09,10.80
2003,06,03,03,10,10.80
2003,06,03,03,11,10.80
2003,06,03,03,12,10.70
2003,06,03,03,13,10.60
2003,06,03,03,14,10.50
2003,06,03,03,15,10.40
2003,06,03,03,16,10.40
2003,06,03,03,17,10.40
2003,06,03,03,18,10.40
2003,06,03,03,19,10.40
2003,06,03,03,20,10.30
2003,06,03,03,21,10.20
2003,06,03,03,22,10.20
2003,06,03,03,23,10.20
2003,06,03,03,24,10.20
2003,06,03,03,25,10.20
2003,06,03,03,26,10.10
2003,06,03,03,27,10.10
2003,06,03,03,28,10.10
2003,06,03,03,29,10.20
2003,06,03,03,30,10.20
2003,06,03,03,31,10.30
2003,06,03,03,32,10.30
2003,06,03,03,33,10.30
2003,06,03,03,34,10.40
2003,06,03,03,35,10.40
2003,06,03,03,36,10.30
2003,06,03,03,37,10.30
2003,06,03,03,38,10.30
2003,06,03,03,39,10.20
2003,06,03,03,40,10.20
2003,06,03,03,41,10.20
2003,06,03,03,42,10.20
2003,06,03,03,43,10.10
2003,06,03,03,44,10.10
2003,06,03,03,45,10.10
2003,06,03,03,46,10.10
2003,06,03,03,47,10.00
2003,06,03,03,48,9.90
2003,06,03,03,49,9.90
2003,06,03,03,50,9.90
2003,06,03,03,51,9.90
2003,06,03,03,52,9.90
2003,06,03,03,53,9.80
2003,06,03,03,54,9.80
2003,06,03,03,55,9.80
2003,06,03,03,56,9.80
2003,06,03,03,57,9.80
2003,06,03,03,58,9.80
2003,06,03,03,59,9.80
2003,06,03,04,00,9.80
2003,06,03,04,01,9.80
2003,06,03,04,02,9.80
2003,06,03,04,03,9.80
2003,06,03,04,04,9.80
2003,06,03,04,05,9.80
2003,06,03,04,06,9.80
2003,06,03,04,07,9.80
2003,06,03,04,08,9.80
2003,06,03,04,09,9.80
2003,06,03,04,10,9.70
2003,06,03,04,11,9.70
2003,06,03,04,12,9.60
2003,06,03,04,13,9.50
2003,06,03,04,14,9.40
2003,06,03,04,15,9.40
2003,06,03,04,16,9.20
2003,06,03,04,17,9.10
2003,06,03,04,18,9.00
2003,06,03,04,19,8.90
2003,06,03,04,20,8.90
2003,06,03,04,21,8.90
2003,06,03,04,22,8.90
2003,06,03,04,23,8.90
2003,06,03,04,24,8.90
2003,06,03,04,25,8.90
2003,06,03,04,26,8.90
2003,06,03,04,27,8.90
2003,06,03,04,28,8.90
2003,06,03,04,29,9.00
2003,06,03,04,30,9.00
2003,06,03,04,31,8.90
2003,06,03,04,32,8.90
2003,06,03,04,33,8.90
2003,06,03,04,34,8.90
2003,06,03,04,35,8.80
2003,06,03,04,36,8.90
2003,06,03,04,37,8.80
2003,06,03,04,38,8.80
2003,06,03,04,39,8.80
2003,06,03,04,40,8.70
2003,06,03,04,41,8.70
2003,06,03,04,42,8.70
2003,06,03,04,43,8.70
2003,06,03,04,44,8.70
2003,06,03,04,45,8.70
2003,06,03,04,46,8.70
2003,06,03,04,47,8.80
2003,06,03,04,48,8.90
2003,06,03,04,49,9.00
2003,06,03,04,50,9.10
2003,06,03,04,51,9.10
2003,06,03,04,52,9.10
2003,06,03,04,53,9.20
2003,06,03,04,54,9.30
2003,06,03,04,55,9.40
2003,06,03,04,56,9.50
2003,06,03,04,57,9.50
2003,06,03,04,58,9.60
2003,06,03,04,59,9.50
2003,06,03,05,00,9.60
2003,06,03,05,01,9.60
2003,06,03,05,02,9.70
2003,06,03,05,03,9.70
2003,06,03,05,04,9.60
2003,06,03,05,05,9.50
2003,06,03,05,06,9.50
2003,06,03,05,07,9.60
2003,06,03,05,08,9.60
2003,06,03,05,09,9.60
2003,06,03,05,10,9.60
2003,06,03,05,11,9.60
2003,06,03,05,12,9.50
2003,06,03,05,13,9.50
2003,06,03,05,14,9.40
2003,06,03,05,15,9.40
2003,06,03,05,16,9.40
2003,06,03,05,17,9.30
2003,06,03,05,18,9.20
2003,06,03,05,19,9.20
2003,06,03,05,20,9.20
2003,06,03,05,21,9.20
2003,06,03,05,22,9.20
2003,06,03,05,23,9.20
2003,06,03,05,24,9.20
2003,06,03,05,25,9.20
2003,06,03,05,26,9.20
2003,06,03,05,27,9.20
2003,06,03,05,28,9.30
2003,06,03,05,29,9.30
2003,06,03,05,30,9.30
2003,06,03,05,31,9.20
2003,06,03,05,32,9.20
2003,06,03,05,33,9.30
2003,06,03,05,34,9.30
2003,06,03,05,35,9.30
2003,06,03,05,36,9.30
2003,06,03,05,37,9.30
2003,06,03,05,38,9.30
2003,06,03,05,39,9.30
2003,06,03,05,40,9.30
2003,06,03,05,41,9.40
2003,06,03,05,42,9.40
2003,06,03,05,43,9.40
2003,06,03,05,44,9.40
2003,06,03,05,45,9.30
2003,06,03,05,46,9.30
2003,06,03,05,47,9.30
2003,06,03,05,48,9.40
2003,06,03,05,49,9.40
2003,06,03,05,50,9.40
2003,06,03,05,51,9.40
2003,06,03,05,52,9.40
2003,06,03,05,53,9.50
2003,06,03,05,54,9.60
2003,06,03,05,55,9.70
2003,06,03,05,56,9.70
2003,06,03,05,57,9.70
2003,06,03,05,58,9.70
2003,06,03,05,59,9.70
2003,06,03,06,00,9.80
2003,06,03,06,01,9.90
2003,06,03,06,02,9.90
2003,06,03,06,03,9.90
2003,06,03,06,04,9.90
2003,06,03,06,05,10.10
2003,06,03,06,06,10.10
2003,06,03,06,07,10.20
2003,06,03,06,08,10.20
2003,06,03,06,09,10.20
2003,06,03,06,10,10.30
2003,06,03,06,11,10.40
2003,06,03,06,12,10.40
2003,06,03,06,13,10.40
2003,06,03,06,14,10.40
2003,06,03,06,15,10.40
2003,06,03,06,16,10.40
2003,06,03,06,17,10.40
2003,06,03,06,18,10.40
2003,06,03,06,19,10.40
2003,06,03,06,20,10.40
2003,06,03,06,21,10.40
2003,06,03,06,22,10.40
2003,06,03,06,23,10.40
2003,06,03,06,24,10.40
2003,06,03,06,25,10.60
2003,06,03,06,26,10.60
2003,06,03,06,27,10.70
2003,06,03,06,28,10.80
2003,06,03,06,29,10.80
2003,06,03,06,30,10.90
2003,06,03,06,31,11.00
2003,06,03,06,32,11.10
2003,06,03,06,33,11.10
2003,06,03,06,34,11.20
2003,06,03,06,35,11.40
2003,06,03,06,36,11.50
2003,06,03,06,37,11.60
2003,06,03,06,38,11.70
2003,06,03,06,39,11.80
2003,06,03,06,40,11.90
2003,06,03,06,41,12.00
2003,06,03,06,42,12.20
2003,06,03,06,43,12.30
2003,06,03,06,44,12.40
2003,06,03,06,45,12.40
2003,06,03,06,46,12.50
2003,06,03,06,47,12.50
2003,06,03,06,48,12.60
2003,06,03,06,49,12.60
2003,06,03,06,50,12.60
2003,06,03,06,51,12.50
2003,06,03,06,52,12.50
2003,06,03,06,53,12.50
2003,06,03,06,54,12.50
2003,06,03,06,55,12.60
2003,06,03,06,56,12.60
2003,06,03,06,57,12.60
2003,06,03,06,58,12.70
2003,06,03,06,59,12.80
2003,06,03,07,00,12.80
2003,06,03,07,01,12.80
2003,06,03,07,02,12.90
2003,06,03,07,03,12.90
2003,06,03,07,04,12.90
2003,06,03,07,05,13.00
2003,06,03,07,06,13.10
2003,06,03,07,07,13.20
2003,06,03,07,08,13.20
2003,06,03,07,09,13.20
2003,06,03,07,10,13.20
2003,06,03,07,11,13.20
2003,06,03,07,12,13.20
2003,06,03,07,13,13.30
2003,06,03,07,14,13.20
2003,06,03,07,15,13.20
2003,06,03,07,16,13.30
2003,06,03,07,17,13.30
2003,06,03,07,18,13.40
2003,06,03,07,19,13.40
2003,06,03,07,20,13.30
2003,06,03,07,21,13.30
2003,06,03,07,22,13.40
2003,06,03,07,23,13.40
2003,06,03,07,24,13.40
2003,06,03,07,25,13.40
2003,06,03,07,26,13.50
2003,06,03,07,27,13.50
2003,06,03,07,28,13.50
2003,06,03,07,29,13.40
2003,06,03,07,30,13.40
2003,06,03,07,31,13.30
2003,06,03,07,32,13.30
2003,06,03,07,33,13.30
2003,06,03,07,34,13.30
2003,06,03,07,35,13.30
2003,06,03,07,36,13.30
2003,06,03,07,37,13.30
2003,06,03,07,38,13.30
2003,06,03,07,39,13.20
2003,06,03,07,40,13.20
2003,06,03,07,41,13.20
2003,06,03,07,42,13.30
2003,06,03,07,43,13.20
2003,06,03,07,44,13.20
2003,06,03,07,45,13.10
2003,06,03,07,46,13.10
2003,06,03,07,47,13.10
2003,06,03,07,48,13.10
2003,06,03,07,49,13.10
2003,06,03,07,50,13.10
2003,06,03,07,51,13.10
2003,06,03,07,52,13.10
2003,06,03,07,53,13.10
2003,06,03,07,54,13.20
2003,06,03,07,55,13.20
2003,06,03,07,56,13.30
2003,06,03,07,57,13.30
2003,06,03,07,58,13.30
2003,06,03,07,59,13.30
2003,06,03,08,00,13.30
2003,06,03,08,01,13.40
2003,06,03,08,02,13.40
2003,06,03,08,03,13.50
2003,06,03,08,04,13.60
2003,06,03,08,05,13.60
2003,06,03,08,06,13.70
2003,06,03,08,07,13.70
2003,06,03,08,08,13.70
2003,06,03,08,09,13.80
2003,06,03,08,10,13.90
2003,06,03,08,11,13.90
2003,06,03,08,12,13.90
2003,06,03,08,13,14.00
2003,06,03,08,14,14.00
2003,06,03,08,15,14.00
2003,06,03,08,16,14.00
2003,06,03,08,17,14.10
2003,06,03,08,18,14.10
2003,06,03,08,19,14.10
2003,06,03,08,20,14.10
2003,06,03,08,21,14.10
2003,06,03,08,22,14.10
2003,06,03,08,23,14.10
2003,06,03,08,24,14.10
2003,06,03,08,25,14.10
2003,06,03,08,26,14.10
2003,06,03,08,27,14.10
2003,06,03,08,28,14.20
2003,06,03,08,29,14.10
2003,06,03,08,30,14.10
2003,06,03,08,31,14.20
2003,06,03,08,32,14.20
2003,06,03,08,33,14.20
2003,06,03,08,34,14.20
2003,06,03,08,35,14.20
2003,06,03,08,36,14.30
2003,06,03,08,37,14.40
2003,06,03,08,38,14.40
2003,06,03,08,39,14.20
2003,06,03,08,40,14.30
2003,06,03,08,41,14.30
2003,06,03,08,42,14.30
2003,06,03,08,43,14.30
2003,06,03,08,44,14.40
2003,06,03,08,45,14.40
2003,06,03,08,46,14.40
2003,06,03,08,47,14.50
2003,06,03,08,48,14.50
2003,06,03,08,49,14.60
2003,06,03,08,50,14.60
2003,06,03,08,51,14.60
2003,06,03,08,52,14.70
2003,06,03,08,53,14.70
2003,06,03,08,54,14.60
2003,06,03,08,55,14.70
2003,06,03,08,56,14.60
2003,06,03,08,57,14.60
2003,06,03,08,58,14.50
2003,06,03,08,59,14.60
2003,06,03,09,00,14.60
2003,06,03,09,01,14.60
2003,06,03,09,02,14.60
2003,06,03,09,03,14.60
2003,06,03,09,04,14.50
2003,06,03,09,05,14.50
2003,06,03,09,06,14.60
2003,06,03,09,07,14.70
2003,06,03,09,08,14.80
2003,06,03,09,09,14.90
2003,06,03,09,10,14.90
2003,06,03,09,11,14.90
2003,06,03,09,12,15.00
2003,06,03,09,13,15.00
2003,06,03,09,14,15.10
2003,06,03,09,15,15.10
2003,06,03,09,16,15.00
2003,06,03,09,17,14.80
2003,06,03,09,18,14.70
2003,06,03,09,19,14.70
2003,06,03,09,20,14.60
2003,06,03,09,21,14.60
2003,06,03,09,22,14.50
2003,06,03,09,23,14.50
2003,06,03,09,24,14.60
2003,06,03,09,25,14.60
2003,06,03,09,26,14.60
2003,06,03,09,27,14.60
2003,06,03,09,28,14.60
2003,06,03,09,29,14.60
2003,06,03,09,30,14.80
2003,06,03,09,31,14.80
2003,06,03,09,32,14.90
2003,06,03,09,33,15.00
2003,06,03,09,34,15.10
2003,06,03,09,35,15.10
2003,06,03,09,36,15.00
2003,06,03,09,37,14.90
2003,06,03,09,38,14.80
2003,06,03,09,39,14.80
2003,06,03,09,40,14.80
2003,06,03,09,41,14.80
2003,06,03,09,42,14.80
2003,06,03,09,43,14.80
2003,06,03,09,44,14.80
2003,06,03,09,45,14.90
2003,06,03,09,46,14.80
2003,06,03,09,47,14.80
2003,06,03,09,48,14.80
2003,06,03,09,49,14.80
2003,06,03,09,50,14.90
2003,06,03,09,51,15.00
2003,06,03,09,52,15.10
2003,06,03,09,53,15.10
2003,06,03,09,54,15.00
2003,06,03,09,55,15.10
2003,06,03,09,56,15.00
2003,06,03,09,57,15.00
2003,06,03,09,58,15.00
2003,06,03,09,59,15.00
2003,06,03,10,00,15.00
2003,06,03,10,01,15.00
2003,06,03,10,02,15.10
2003,06,03,10,03,15.10
2003,06,03,10,04,15.20
2003,06,03,10,05,15.20
2003,06,03,10,06,15.20
2003,06,03,10,07,15.30
2003,06,03,10,08,15.30
2003,06,03,10,09,15.30
2003,06,03,10,10,15.30
2003,06,03,10,11,15.30
2003,06,03,10,12,15.30
2003,06,03,10,13,15.30
2003,06,03,10,14,15.40
2003,06,03,10,15,15.40
2003,06,03,10,16,15.40
2003,06,03,10,17,15.50
2003,06,03,10,18,15.60
2003,06,03,10,19,15.70
2003,06,03,10,20,15.80
2003,06,03,10,21,15.70
2003,06,03,10,22,15.70
2003,06,03,10,23,15.60
2003,06,03,10,24,15.60
2003,06,03,10,25,15.50
2003,06,03,10,26,15.50
2003,06,03,10,27,15.60
2003,06,03,10,28,15.60
2003,06,03,10,29,15.70
2003,06,03,10,30,15.80
2003,06,03,10,31,15.70
2003,06,03,10,32,15.70
2003,06,03,10,33,15.80
2003,06,03,10,34,15.70
2003,06,03,10,35,15.70
2003,06,03,10,36,15.70
2003,06,03,10,37,15.70
2003,06,03,10,38,15.70
2003,06,03,10,39,15.80
2003,06,03,10,40,15.80
2003,06,03,10,41,15.80
2003,06,03,10,42,15.80
2003,06,03,10,43,15.90
2003,06,03,10,44,15.90
2003,06,03,10,45,16.00
2003,06,03,10,46,16.10
2003,06,03,10,47,16.10
2003,06,03,10,48,16.10
2003,06,03,10,49,16.10
2003,06,03,10,50,16.10
2003,06,03,10,51,16.10
2003,06,03,10,52,16.20
2003,06,03,10,53,16.20
2003,06,03,10,54,16.20
2003,06,03,10,55,16.30
2003,06,03,10,56,16.40
2003,06,03,10,57,16.30
2003,06,03,10,58,16.30
2003,06,03,10,59,16.30
2003,06,03,11,00,16.20
2003,06,03,11,01,16.20
2003,06,03,11,02,16.20
2003,06,03,11,03,16.30
2003,06,03,11,04,16.30
2003,06,03,11,05,16.30
2003,06,03,11,06,16.40
2003,06,03,11,07,16.40
2003,06,03,11,08,16.40
2003,06,03,11,09,16.40
2003,06,03,11,10,16.30
2003,06,03,11,11,16.20
2003,06,03,11,12,16.20
2003,06,03,11,13,16.30
2003,06,03,11,14,16.40
2003,06,03,11,15,16.50
2003,06,03,11,16,16.60
2003,06,03,11,17,16.70
2003,06,03,11,18,16.70
2003,06,03,11,19,16.70
2003,06,03,11,20,16.70
2003,06,03,11,21,16.70
2003,06,03,11,22,16.70
2003,06,03,11,23,16.70
2003,06,03,11,24,16.70
2003,06,03,11,25,16.80
2003,06,03,11,26,16.90
2003,06,03,11,27,17.00
2003,06,03,11,28,17.10
2003,06,03,11,29,17.20
2003,06,03,11,30,17.20
2003,06,03,11,31,17.30
2003,06,03,11,32,17.30
2003,06,03,11,33,17.20
2003,06,03,11,34,17.10
2003,06,03,11,35,17.00
2003,06,03,11,36,17.00
2003,06,03,11,37,17.00
2003,06,03,11,38,17.00
2003,06,03,11,39,17.00
2003,06,03,11,40,17.00
2003,06,03,11,41,17.00
2003,06,03,11,42,17.00
2003,06,03,11,43,17.00
2003,06,03,11,44,17.00
2003,06,03,11,45,16.90
2003,06,03,11,46,16.80
2003,06,03,11,47,16.70
2003,06,03,11,48,16.60
2003,06,03,11,49,16.60
2003,06,03,11,50,16.50
2003,06,03,11,51,16.50
2003,06,03,11,52,16.60
2003,06,03,11,53,16.70
2003,06,03,11,54,16.80
2003,06,03,11,55,16.80
2003,06,03,11,56,16.70
2003,06,03,11,57,16.80
2003,06,03,11,58,16.90
2003,06,03,11,59,16.80
2003,06,03,12,00,16.90
2003,06,03,12,01,17.00
2003,06,03,12,02,17.00
2003,06,03,12,03,16.90
2003,06,03,12,04,17.10
2003,06,03,12,05,17.20
2003,06,03,12,06,17.30
2003,06,03,12,07,17.20
2003,06,03,12,08,17.10
2003,06,03,12,09,17.20
2003,06,03,12,10,17.20
2003,06,03,12,11,17.10
2003,06,03,12,12,17.10
2003,06,03,12,13,16.90
2003,06,03,12,14,16.90
2003,06,03,12,15,17.00
2003,06,03,12,16,17.20
2003,06,03,12,17,17.30
2003,06,03,12,18,17.40
2003,06,03,12,19,17.40
2003,06,03,12,20,17.30
2003,06,03,12,21,17.30
2003,06,03,12,22,17.30
2003,06,03,12,23,17.40
2003,06,03,12,24,17.30
2003,06,03,12,25,17.30
2003,06,03,12,26,17.20
2003,06,03,12,27,17.20
2003,06,03,12,28,17.30
2003,06,03,12,29,17.30
2003,06,03,12,30,17.20
2003,06,03,12,31,17.20
2003,06,03,12,32,17.30
2003,06,03,12,33,17.30
2003,06,03,12,34,17.30
2003,06,03,12,35,17.20
2003,06,03,12,36,17.10
2003,06,03,12,37,17.00
2003,06,03,12,38,17.00
2003,06,03,12,39,17.00
2003,06,03,12,40,17.10
2003,06,03,12,41,17.00
2003,06,03,12,42,16.90
2003,06,03,12,43,17.00
2003,06,03,12,44,17.00
2003,06,03,12,45,17.00
2003,06,03,12,46,17.00
2003,06,03,12,47,17.00
2003,06,03,12,48,17.10
2003,06,03,12,49,17.10
2003,06,03,12,50,17.10
2003,06,03,12,51,17.00
2003,06,03,12,52,17.00
2003,06,03,12,53,17.00
2003,06,03,12,54,17.00
2003,06,03,12,55,17.10
2003,06,03,12,56,17.20
2003,06,03,12,57,17.30
2003,06,03,12,58,17.40
2003,06,03,12,59,17.50
2003,06,03,13,00,17.60
2003,06,03,13,01,17.70
2003,06,03,13,02,17.70
2003,06,03,13,03,17.70
2003,06,03,13,04,17.70
2003,06,03,13,05,17.60
2003,06,03,13,06,17.80
2003,06,03,13,07,17.90
2003,06,03,13,08,17.90
2003,06,03,13,09,17.70
2003,06,03,13,10,17.70
2003,06,03,13,11,17.60
2003,06,03,13,12,17.70
2003,06,03,13,13,17.90
2003,06,03,13,14,17.90
2003,06,03,13,15,17.80
2003,06,03,13,16,17.90
2003,06,03,13,17,17.90
2003,06,03,13,18,17.90
2003,06,03,13,19,17.80
2003,06,03,13,20,17.70
2003,06,03,13,21,17.60
2003,06,03,13,22,17.50
2003,06,03,13,23,17.40
2003,06,03,13,24,17.50
2003,06,03,13,25,17.50
2003,06,03,13,26,17.60
2003,06,03,13,27,17.60
2003,06,03,13,28,17.50
2003,06,03,13,29,17.50
2003,06,03,13,30,17.60
2003,06,03,13,31,17.60
2003,06,03,13,32,17.50
2003,06,03,13,33,17.50
2003,06,03,13,34,17.50
2003,06,03,13,35,17.60
2003,06,03,13,36,17.80
2003,06,03,13,37,17.90
2003,06,03,13,38,18.00
2003,06,03,13,39,18.20
2003,06,03,13,40,18.50
2003,06,03,13,41,18.40
2003,06,03,13,42,18.30
2003,06,03,13,43,18.20
2003,06,03,13,44,18.40
2003,06,03,13,45,18.50
2003,06,03,13,46,18.60
2003,06,03,13,47,18.60
2003,06,03,13,48,18.50
2003,06,03,13,49,18.50
2003,06,03,13,50,18.50
2003,06,03,13,51,18.70
2003,06,03,13,52,18.90
2003,06,03,13,53,18.90
2003,06,03,13,54,18.90
2003,06,03,13,55,18.90
2003,06,03,13,56,19.00
2003,06,03,13,57,19.10
2003,06,03,13,58,19.30
2003,06,03,13,59,19.30
2003,06,03,14,00,19.40
2003,06,03,14,01,19.30
2003,06,03,14,02,19.10
2003,06,03,14,03,19.00
2003,06,03,14,04,19.00
2003,06,03,14,05,18.90
2003,06,03,14,06,18.90
2003,06,03,14,07,18.80
2003,06,03,14,08,18.70
2003,06,03,14,09,18.70
2003,06,03,14,10,18.80
2003,06,03,14,11,18.80
2003,06,03,14,12,18.80
2003,06,03,14,13,18.70
2003,06,03,14,14,18.70
2003,06,03,14,15,18.80
2003,06,03,14,16,18.90
2003,06,03,14,17,19.00
2003,06,03,14,18,18.90
2003,06,03,14,19,19.00
2003,06,03,14,20,19.10
2003,06,03,14,21,19.20
2003,06,03,14,22,19.30
2003,06,03,14,23,19.20
2003,06,03,14,24,19.30
2003,06,03,14,25,19.40
2003,06,03,14,26,19.40
2003,06,03,14,27,19.50
2003,06,03,14,28,19.40
2003,06,03,14,29,19.30
2003,06,03,14,30,19.20
2003,06,03,14,31,19.20
2003,06,03,14,32,19.40
2003,06,03,14,33,19.40
2003,06,03,14,34,19.40
2003,06,03,14,35,19.50
2003,06,03,14,36,19.60
2003,06,03,14,37,19.60
2003,06,03,14,38,19.70
2003,06,03,14,39,19.80
2003,06,03,14,40,19.80
2003,06,03,14,41,19.80
2003,06,03,14,42,19.90
2003,06,03,14,43,19.70
2003,06,03,14,44,19.60
2003,06,03,14,45,19.50
2003,06,03,14,46,19.60
2003,06,03,14,47,19.50
2003,06,03,14,48,19.50
2003,06,03,14,49,19.50
2003,06,03,14,50,19.40
2003,06,03,14,51,19.40
2003,06,03,14,52,19.40
2003,06,03,14,53,19.30
2003,06,03,14,54,19.20
2003,06,03,14,55,19.20
2003,06,03,14,56,19.30
2003,06,03,14,57,19.40
2003,06,03,14,58,19.50
2003,06,03,14,59,19.60
2003,06,03,15,00,19.80
2003,06,03,15,01,19.90
2003,06,03,15,02,20.10
2003,06,03,15,03,20.30
2003,06,03,15,04,20.30
2003,06,03,15,05,20.00
2003,06,03,15,06,19.90
2003,06,03,15,07,19.80
2003,06,03,15,08,19.80
2003,06,03,15,09,19.80
2003,06,03,15,10,19.60
2003,06,03,15,11,19.50
2003,06,03,15,12,19.50
2003,06,03,15,13,19.50
2003,06,03,15,14,19.60
2003,06,03,15,15,19.60
2003,06,03,15,16,19.50
2003,06,03,15,17,19.50
2003,06,03,15,18,19.40
2003,06,03,15,19,19.40
2003,06,03,15,20,19.40
2003,06,03,15,21,19.40
2003,06,03,15,22,19.40
2003,06,03,15,23,19.40
2003,06,03,15,24,19.50
2003,06,03,15,25,19.60
2003,06,03,15,26,19.70
2003,06,03,15,27,19.80
2003,06,03,15,28,19.80
2003,06,03,15,29,19.60
2003,06,03,15,30,19.80
2003,06,03,15,31,19.80
2003,06,03,15,32,19.50
2003,06,03,15,33,19.30
2003,06,03,15,34,19.30
2003,06,03,15,35,19.30
2003,06,03,15,36,19.40
2003,06,03,15,37,19.70
2003,06,03,15,38,19.80
2003,06,03,15,39,19.80
2003,06,03,15,40,19.90
2003,06,03,15,41,20.00
2003,06,03,15,42,20.10
2003,06,03,15,43,20.10
2003,06,03,15,44,20.10
2003,06,03,15,45,20.10
2003,06,03,15,46,20.10
2003,06,03,15,47,20.10
2003,06,03,15,48,20.20
2003,06,03,15,49,20.30
2003,06,03,15,50,20.30
2003,06,03,15,51,20.30
2003,06,03,15,52,20.20
2003,06,03,15,53,20.00
2003,06,03,15,54,19.90
2003,06,03,15,55,19.80
2003,06,03,15,56,19.80
2003,06,03,15,57,19.80
2003,06,03,15,58,19.80
2003,06,03,15,59,19.90
2003,06,03,16,00,19.90
2003,06,03,16,01,19.90
2003,06,03,16,02,19.90
2003,06,03,16,03,20.00
2003,06,03,16,04,20.10
2003,06,03,16,05,20.20
2003,06,03,16,06,20.20
2003,06,03,16,07,20.20
2003,06,03,16,08,20.20
2003,06,03,16,09,20.20
2003,06,03,16,10,20.20
2003,06,03,16,11,20.20
2003,06,03,16,12,20.30
2003,06,03,16,13,20.40
2003,06,03,16,14,20.50
2003,06,03,16,15,20.70
2003,06,03,16,16,20.70
2003,06,03,16,17,20.70
2003,06,03,16,18,20.60
2003,06,03,16,19,20.50
2003,06,03,16,20,20.50
2003,06,03,16,21,20.50
2003,06,03,16,22,20.50
2003,06,03,16,23,20.50
2003,06,03,16,24,20.60
2003,06,03,16,25,20.70
2003,06,03,16,26,20.80
2003,06,03,16,27,20.80
2003,06,03,16,28,20.90
2003,06,03,16,29,20.90
2003,06,03,16,30,20.90
2003,06,03,16,31,20.90
2003,06,03,16,32,20.90
2003,06,03,16,33,21.00
2003,06,03,16,34,21.00
2003,06,03,16,35,21.00
2003,06,03,16,36,21.00
2003,06,03,16,37,21.00
2003,06,03,16,38,21.20
2003,06,03,16,39,21.30
2003,06,03,16,40,21.30
2003,06,03,16,41,21.30
2003,06,03,16,42,21.30
2003,06,03,16,43,21.30
2003,06,03,16,44,21.30
2003,06,03,16,45,21.30
2003,06,03,16,46,21.30
2003,06,03,16,47,21.40
2003,06,03,16,48,21.30
2003,06,03,16,49,21.30
2003,06,03,16,50,21.30
2003,06,03,16,51,21.30
2003,06,03,16,52,21.30
2003,06,03,16,53,21.30
2003,06,03,16,54,21.30
2003,06,03,16,55,21.40
2003,06,03,16,56,21.40
2003,06,03,16,57,21.40
2003,06,03,16,58,21.30
2003,06,03,16,59,21.30
2003,06,03,17,00,21.30
2003,06,03,17,01,21.30
2003,06,03,17,02,21.30
2003,06,03,17,03,21.40
2003,06,03,17,04,21.50
2003,06,03,17,05,21.60
2003,06,03,17,06,21.60
2003,06,03,17,07,21.50
2003,06,03,17,08,21.50
2003,06,03,17,09,21.40
2003,06,03,17,10,21.40
2003,06,03,17,11,21.40
2003,06,03,17,12,21.40
2003,06,03,17,13,21.50
2003,06,03,17,14,21.60
2003,06,03,17,15,21.60
2003,06,03,17,16,21.70
2003,06,03,17,17,21.80
2003,06,03,17,18,21.80
2003,06,03,17,19,21.80
2003,06,03,17,20,21.80
2003,06,03,17,21,21.70
2003,06,03,17,22,21.70
2003,06,03,17,23,21.80
2003,06,03,17,24,21.90
2003,06,03,17,25,22.00